Regional Weather Roundup
Issued by NWS Northern Indiana

Home | Current Version | Previous Version | Text Only | Print | Product List | Glossary On
Versions: 1 2 3 4 5 6 7 8 9 10 11 12 13 14 15 16 17 18 19 20 21 22 23 24 25 26 27 28 29 30 31 32 33 34 35 36 37 38 39 40 41 42 43 44 45 46 47 48 49 50
000
ASUS43 KIWX 270810
RWRIWX

KIWX WEATHER ROUNDUP
NATIONAL WEATHER SERVICE NORTHERN INDIANA
300 AM EST FRI FEB 27 2015

NOTE: "FAIR" INDICATES FEW OR NO CLOUDS BELOW 12,000 FEET WITH NO
SIGNIFICANT WEATHER AND/OR OBSTRUCTIONS TO VISIBILITY.

* THESE STATIONS ARE NOT UNDER NWS QUALITY CONTROL. THEY ALSO MAY NOT
  REPORT WEATHER SUCH AS PRECIPITATION OR FOG.

INZ001>027-270900-
NORTHERN INDIANA

CITY           SKY/WX    TMP DP  RH WIND       PRES   REMARKS
GARY*          MOCLDY     7  -7  52 W8        30.44R WCI  -5
VALPARAISO     CLOUDY     4  -1  80 W8        30.41R WCI  -9
MICHIGAN CITY* FLURRIES   9   3  78 CALM      30.43R
LAPORTE*       CLOUDY     5   1  84 CALM      30.41R
KNOX*            N/A      5  -9  51 SW3       30.42R
SOUTH BEND     CLEAR      1  -8  66 N5        30.41R WCI  -9
GOSHEN         CLEAR     -5 -12  72 CALM      30.40R
MONTICELLO*    FAIR       1  -3  82 SW6       30.44R WCI -10
LOGANSPORT*    CLEAR      3   1  92 W3        30.43R
ROCHESTER*     CLOUDY    12   9  85 W5        30.42R WCI   4
WARSAW*        CLOUDY     3  -2  78 CALM      30.40R
ANGOLA*        CLEAR    -11 -17  77 CALM      30.37R
FORT WAYNE     PTCLDY     0  -8  69 NW5       30.40R WCI -10
HUNTINGTON*    FAIR       1  -8  67 CALM      30.40R
PERU/GRISSOM   MOCLDY     6   2  85 W7        30.40R WCI  -6
MARION*        PTCLDY    -1  -6  80 W5        30.41R WCI -12

$$
INZ028>050-270900-
CENTRAL INDIANA

CITY           SKY/WX    TMP DP  RH WIND       PRES   REMARKS
LAFAYETTE      CLOUDY     4  -3  73 W3        30.46R
KOKOMO*        CLEAR      7   1  78 W8        30.42R WCI  -6
MUNCIE*        CLEAR      1  -4  79 NW7       30.39R WCI -12
INDIANAPOLIS   PTCLDY     4   0  83 NW6       30.42R WCI  -7

$$
MIZ043>046-050>051-056>058-064>065-071>073-077>080-270900-
SOUTHWEST LOWER MICHIGAN

CITY           SKY/WX    TMP DP  RH WIND       PRES   REMARKS
BATTLE CREEK   CLEAR      0 -10  63 N3        30.38R
BENTON HARBOR  CLEAR      2  -8  63 CALM      30.42R
COLDWATER*     CLEAR     -9 -14  78 CALM      30.37R
HILLSDALE*     CLEAR     -6 -11  77 CALM      30.34R
HOLLAND        CLEAR     -3 -13  62 CALM      30.42R
GRAND RAPIDS   CLEAR     -4 -13  65 E3        30.39S
KALAMAZOO      CLEAR      0  -9  65 CALM      30.39R
STURGIS*       CLEAR     -2 -11  65 N6        30.38R WCI -14
THREE RIVERS*  FAIR      -8 -12  80 CALM      30.41R

$$
OHZ001>008-015>018-024>025-270900-
NORTHWEST OHIO

CITY           SKY/WX    TMP DP  RH WIND       PRES   REMARKS
WAUSEON*       FAIR      -4  -9  77 NW6       30.38R WCI -16
DEFIANCE       CLEAR     -3  -9  75 CALM      30.40R
FINDLAY        PTCLDY     5  -2  72 CALM      30.36R
TOLEDO EXPRESS CLEAR     -4  -7  87 CALM      30.39R
TOLEDO METCALF CLEAR      2  -3  80 CALM      30.40R
LIMA           PTCLDY     7   2  80 CALM      30.35R HAZE

$$
AND FOR LAKE MICHIGAN COASTAL AND OPEN LAKE BUOY OBSERVATIONS

STATION/POSITION TEMP    WIND        PRES    VSBY  WAVE
                 AIR SEA DIR/SP/G                  HT/PER
                 (F)     (DEG/KT/KT) (MB)    (MI)  (FT/S)
CALUMET HARBOR     8     280/  7/ 10 1029.4R
MICHIGAN CITY     10      40/  7/  9   N/A
SAINT JOSEPH       5      CALM  /  2 1030.5S

$$
&&



USA.gov is the U.S. government's official web portal to all federal, state and local government web resources and services.